Showing default

DIADEME 1, 2674

Orbit data source: Space-Track

DIADEME 1, 2674 is a payload satellite owned by CNES (FR) in LEO that was launched on Wed, 08 Feb 1967 UTC via a DIAMANT A launch vehicle from the Hamma Guira Space Track Range (HGSTR). Payload-class satellites include a variety of spacecraft equipped with specific instruments for various scientific and technological missions. These include communications satellites like Starlink; space stations such as the ISS; scientific satellites like the Hubble; Earth observation satellites from companies like Planet Labs, Umbra, and HawkEye 360; GPS; miniature CubeSats for education and research; and military/defense satellites.

Loading next visibility...
Identifier
2674, 1967-011A
Orbit
LEO
Last TLE update
1 day ago
Origin
Manufacturer
CNES
Mission
Civil Geodetic
Bus & Motor
D-1, Unknown motor
Mass
23 kg wet, 23 kg dry
Launch date (UTC)
1967-02-08 (58 years ago)
Launch vehicle
DIAMANT A
Launch site
Hamma Guira Space Track Range (HGSTR)
Object type
Payload
Rocket body
Debris
Shape & HBR
Cyl + 4 Pan, 1.5 m
Radar Cross Section
0.455 m², Medium (>0.1 m² and < 1m²)

Expand to show TLE details & history

TLE from 1 day ago
0 DIADEME 1
1 02674U 67011A   25181.08493208  .00002508  00000-0  30263-3 0  9997
2 02674  39.9186  60.9962 0221438 349.0111  10.5882 14.69431106 38200
Epoch: 2025-06-30T02:02Z
TLE epoch observation values (Epoch: 2025-06-30T02:02:18.131Z)
Latitude
-0.00003°
Longitude
112.02081°
Altitude
509.22 km
Speed
7.693 km/s
True Right ascension
04h 03m 59s
True Declination
0° 00' 00"
Sunlit
Object was in daylight at epoch
Visualization orbit readout
Latitude
-30.81297°
Longitude
60.66303°
Altitude
567.613 km
Speed
7.633 km/s
Apparent Right ascension
02h 39m 07s
Apparent Declination
-40° 05' 59"
Sunlit
Object is in daylight
Visualization observer readout
Local Sidereal Time
17:10:04
Azimuth
102.742° ESE
Elevation
-61.317°
Doppler factor
1
Orbital elements
Apogee altitude
821.251 km
Perigee altitude
509.315 km
Semi-major axis
7,043.42 km
Eccentricity
0.02214
Inclination
39.9186°
RAAN
60.9962°
Arg. of periapsis
349.0111°
True anomaly
Unknown
Mean anomaly
10.5882°
Eccentric anomaly
Unknown
Mean motion
3.67171 °/min
Orbital period
98.05 mins
BSTAR
0.00030263
Loading maneuver chart data...
Loading SW <> Apogee altitude chart data...

DIADEME 1 Visibility forecast

Observer location: undefined°, undefined°

Span
Click to sort rows by Start time (UTC) header in descending order
Start Az.
Max El. time (UTC)
Max El. Az.
Max El.
End time (UTC)
End Az.
7 mins2025-07-01 19:01:25.343Z215.572° SW2025-07-01 19:05:25.343Z138.045° SSE28.003°2025-07-01 19:08:25.343Z91.97° ESE
7 mins2025-07-01 20:45:25.343Z254.628° W2025-07-01 20:47:25.343Z232.166° WSW43.437°2025-07-01 20:52:25.343Z83.924° E
7 mins2025-07-01 22:28:25.343Z274.394° WNW2025-07-01 22:31:25.343Z129.45° SE44.497°2025-07-01 22:35:25.343Z100.815° ESE
8 mins2025-07-02 00:11:25.343Z263.768° W2025-07-02 00:14:25.343Z201.502° SSW34.225°2025-07-02 00:19:25.343Z133.918° SE
|